| time (UTC) | temp F | wind direction | speed MPH | gust MPH | rain 1hr in | rain 24hr in | rain mn in | humidity % | barometer mb |
| 20260502170206 | 55 | 348 | 5.0 | 14.0 | 0.00 | 0.00 | 0.00 | 38 | |
| 20260502164206 | 55 | 347 | 5.0 | 10.0 | 0.00 | 0.00 | 0.00 | 38 | |
| 20260502163206 | 54 | 344 | 7.0 | 13.0 | 0.00 | 0.00 | 0.00 | 37 | |
| 20260502162206 | 53 | 282 | 6.0 | 17.0 | 0.00 | 0.00 | 0.00 | 39 | |
| 20260502161206 | 53 | 318 | 7.0 | 15.0 | 0.00 | 0.00 | 0.00 | 37 | |
| 20260502152205 | 50 | 329 | 7.0 | 14.0 | 0.00 | 0.00 | 0.00 | 44 | |
| 20260502151206 | 51 | 327 | 6.0 | 13.0 | 0.00 | 0.00 | 0.00 | 43 | |
| 20260502150205 | 51 | 330 | 5.0 | 12.0 | 0.00 | 0.00 | 0.00 | 48 | |
| 20260502130205 | 43 | 266 | 2.0 | 9.0 | 0.00 | 0.00 | 0.00 | 77 | |
| 20260502123206 | 40 | 285 | 2.0 | 8.0 | 0.00 | 0.00 | 0.00 | 83 | |
| 20260502122205 | 39 | 210 | 2.0 | 7.0 | 0.00 | 0.00 | 0.00 | 85 | |
| 20260502121205 | 39 | 272 | 2.0 | 7.0 | 0.00 | 0.00 | 0.00 | 86 | |
| 20260502120205 | 38 | 274 | 2.0 | 7.0 | 0.00 | 0.00 | 0.00 | 87 | |
| 20260502115206 | 37 | 296 | 2.0 | 6.0 | 0.00 | 0.00 | 0.00 | 89 | |
| 20260502114205 | 36 | 310 | 2.0 | 6.0 | 0.00 | 0.00 | 0.00 | 92 | |
| 20260502113206 | 35 | 327 | 3.0 | 5.0 | 0.00 | 0.00 | 0.00 | 96 | |
| 20260502112206 | 34 | 336 | 1.0 | 1.0 | 0.00 | 0.00 | 0.00 | 95 | |
| 20260502111206 | 34 | 206 | 0.0 | 0.0 | 0.00 | 0.00 | 0.00 | 94 | |
| 20260502110205 | 35 | 206 | 0.0 | 0.0 | 0.00 | 0.00 | 0.00 | 93 | |
| 20260502105206 | 35 | 241 | 0.0 | 2.0 | 0.00 | 0.00 | 0.00 | 93 | |
| 20260502104206 | 35 | 251 | 1.0 | 5.0 | 0.00 | 0.00 | 0.00 | 94 | |
| 20260502103205 | 34 | 194 | 0.0 | 2.0 | 0.00 | 0.00 | 0.00 | 95 | |
| 20260502102206 | 34 | 199 | 0.0 | 1.0 | 0.00 | 0.00 | 0.00 | 94 | |
| 20260502101206 | 35 | 228 | 0.0 | 1.0 | 0.00 | 0.00 | 0.00 | 94 | |
| 20260502100206 | 35 | 294 | 0.0 | 1.0 | 0.00 | 0.00 | 0.00 | 93 | |
| 20260502091206 | 36 | 279 | 1.0 | 2.0 | 0.00 | 0.00 | 0.00 | 93 | |
| 20260502090206 | 36 | 270 | 2.0 | 5.0 | 0.00 | 0.00 | 0.00 | 93 | |
| 20260502071206 | 36 | 284 | 1.0 | 2.0 | 0.00 | 0.00 | 0.00 | 83 | |
| 20260502070206 | 36 | 283 | 1.0 | 5.0 | 0.00 | 0.00 | 0.00 | 83 | |
| 20260502065206 | 36 | 278 | 1.0 | 2.0 | 0.00 | 0.00 | 0.00 | 80 | |
| 20260502064206 | 36 | 257 | 1.0 | 2.0 | 0.00 | 0.00 | 0.00 | 78 | |
| 20260502063206 | 37 | 260 | 1.0 | 2.0 | 0.00 | 0.00 | 0.00 | 76 | |
| 20260502062206 | 37 | 238 | 2.0 | 5.0 | 0.00 | 0.00 | 0.00 | 76 | |
| 20260502061205 | 37 | 250 | 2.0 | 5.0 | 0.00 | 0.00 | 0.00 | 75 | |
| 20260502060206 | 36 | 237 | 2.0 | 6.0 | 0.00 | 0.00 | 0.00 | 79 | |
| 20260502055206 | 35 | 253 | 1.0 | 5.0 | 0.00 | 0.00 | 0.00 | 77 | |
| 20260502054206 | 35 | 287 | 0.0 | 2.0 | 0.00 | 0.00 | 0.00 | 75 | |
| 20260502053205 | 35 | 81 | 0.0 | 0.0 | 0.00 | 0.00 | 0.00 | 74 | |
| 20260502052206 | 35 | 81 | 0.0 | 0.0 | 0.00 | 0.00 | 0.00 | 73 | |
| 20260502051205 | 35 | 81 | 0.0 | 0.0 | 0.00 | 0.00 | 0.00 | 73 | |
| 20260502050206 | 36 | 81 | 0.0 | 0.0 | 0.00 | 0.00 | 0.00 | 73 | |
| 20260502045206 | 36 | 81 | 0.0 | 0.0 | 0.00 | 0.00 | 0.00 | 71 | |
| 20260502044206 | 36 | 81 | 0.0 | 0.0 | 0.00 | 0.00 | 0.00 | 70 | |
| 20260502043209 | 36 | 81 | 0.0 | 0.0 | 0.00 | 0.00 | 0.00 | 70 | |
| 20260502042206 | 37 | 81 | 0.0 | 0.0 | 0.00 | 0.00 | 0.00 | 68 | |
| 20260502041206 | 37 | 81 | 0.0 | 0.0 | 0.00 | 0.00 | 0.00 | 68 | |
| 20260502040206 | 37 | 81 | 0.0 | 0.0 | 0.00 | 0.00 | 0.00 | 68 | |
| 20260502035206 | 38 | 81 | 0.0 | 0.0 | 0.00 | 0.00 | 0.00 | 67 | |
| 20260502034206 | 38 | 81 | 0.0 | 0.0 | 0.00 | 0.00 | 0.00 | 64 | |
| 20260502033206 | 38 | 81 | 0.0 | 0.0 | 0.00 | 0.00 | 0.00 | 64 | |
| 20260502032206 | 39 | 81 | 0.0 | 0.0 | 0.00 | 0.00 | 0.00 | 63 | |
| 20260502031206 | 39 | 81 | 0.0 | 0.0 | 0.00 | 0.00 | 0.00 | 63 | |
| 20260502030206 | 40 | 81 | 0.0 | 0.0 | 0.00 | 0.00 | 0.00 | 61 | |
| 20260502025206 | 41 | 81 | 0.0 | 0.0 | 0.00 | 0.00 | 0.00 | 59 | |
| 20260502024206 | 42 | 81 | 0.0 | 2.0 | 0.00 | 0.00 | 0.00 | 57 | |
| 20260502023205 | 42 | 89 | 2.0 | 3.0 | 0.00 | 0.00 | 0.00 | 55 | |
| 20260502022205 | 42 | 94 | 1.0 | 2.0 | 0.00 | 0.00 | 0.00 | 54 | |
| 20260502021206 | 43 | 80 | 1.0 | 3.0 | 0.00 | 0.00 | 0.00 | 54 | |
| 20260502020205 | 43 | 74 | 1.0 | 5.0 | 0.00 | 0.00 | 0.00 | 53 | |
| 20260502015206 | 43 | 85 | 2.0 | 6.0 | 0.00 | 0.00 | 0.00 | 53 | |
| 20260502014205 | 44 | 107 | 2.0 | 7.0 | 0.00 | 0.00 | 0.00 | 52 | |
| 20260502013205 | 44 | 82 | 2.0 | 5.0 | 0.00 | 0.00 | 0.00 | 51 | |
| 20260502012206 | 45 | 80 | 2.0 | 6.0 | 0.00 | 0.00 | 0.00 | 50 | |
| 20260502011205 | 45 | 80 | 2.0 | 7.0 | 0.00 | 0.00 | 0.00 | 50 | |
| 20260502010206 | 45 | 90 | 2.0 | 5.0 | 0.00 | 0.00 | 0.00 | 49 | |
| 20260502005206 | 46 | 77 | 3.0 | 6.0 | 0.00 | 0.00 | 0.00 | 47 | |
| 20260502004206 | 46 | 82 | 2.0 | 8.0 | 0.00 | 0.00 | 0.00 | 46 | |
| 20260502003209 | 47 | 81 | 4.0 | 10.0 | 0.00 | 0.00 | 0.00 | 46 | |
| 20260502002206 | 47 | 85 | 2.0 | 3.0 | 0.00 | 0.00 | 0.00 | 47 | |
| 20260502001205 | 47 | 102 | 0.0 | 5.0 | 0.00 | 0.00 | 0.00 | 47 | |
| 20260502000205 | 47 | 84 | 3.0 | 6.0 | 0.00 | 0.00 | 0.00 | 45 | |
| 20260501235206 | 47 | 81 | 3.0 | 7.0 | 0.00 | 0.00 | 0.00 | 46 | |
| 20260501234206 | 48 | 92 | 4.0 | 10.0 | 0.00 | 0.00 | 0.00 | 44 | |
| 20260501233206 | 48 | 90 | 3.0 | 7.0 | 0.00 | 0.00 | 0.00 | 45 | |
| 20260501232206 | 49 | 106 | 4.0 | 7.0 | 0.00 | 0.00 | 0.00 | 43 | |
| 20260501231205 | 48 | 66 | 5.0 | 9.0 | 0.00 | 0.00 | 0.00 | 44 | |
| 20260501230206 | 49 | 104 | 3.0 | 7.0 | 0.00 | 0.00 | 0.00 | 44 | |
| 20260501225206 | 49 | 80 | 4.0 | 10.0 | 0.00 | 0.00 | 0.00 | 42 | |
| 20260501224205 | 49 | 95 | 3.0 | 9.0 | 0.00 | 0.00 | 0.00 | 42 | |
| 20260501223206 | 49 | 52 | 0.0 | 8.0 | 0.00 | 0.00 | 0.00 | 44 | |
| 20260501222206 | 49 | 117 | 5.0 | 12.0 | 0.00 | 0.00 | 0.00 | 43 | |
| 20260501221206 | 48 | 86 | 6.0 | 12.0 | 0.00 | 0.00 | 0.00 | 44 | |
| 20260501220206 | 49 | 103 | 6.0 | 15.0 | 0.00 | 0.00 | 0.00 | 44 | |
| 20260501215206 | 50 | 80 | 5.0 | 9.0 | 0.00 | 0.00 | 0.00 | 43 | |
| 20260501214206 | 52 | 46 | 4.0 | 10.0 | 0.00 | 0.00 | 0.00 | 44 | |
| 20260501213206 | 51 | 33 | 2.0 | 9.0 | 0.00 | 0.00 | 0.00 | 41 | |
| 20260501212206 | 51 | 7 | 4.0 | 9.0 | 0.00 | 0.00 | 0.00 | 41 | |
| 20260501211206 | 52 | 107 | 3.0 | 12.0 | 0.00 | 0.00 | 0.00 | 42 | |
| 20260501210206 | 51 | 9 | 5.0 | 12.0 | 0.00 | 0.00 | 0.00 | 42 | |
| 20260501205206 | 51 | 65 | 2.0 | 7.0 | 0.00 | 0.00 | 0.00 | 42 | |
| 20260501204206 | 52 | 53 | 1.0 | 7.0 | 0.00 | 0.00 | 0.00 | 42 | |
| 20260501203209 | 51 | 101 | 2.0 | 6.0 | 0.00 | 0.00 | 0.00 | 44 | |
| 20260501202206 | 50 | 11 | 2.0 | 9.0 | 0.00 | 0.00 | 0.00 | 44 | |
| 20260501201205 | 50 | 12 | 4.0 | 8.0 | 0.00 | 0.00 | 0.00 | 44 | |
| 20260501200205 | 50 | 93 | 3.0 | 8.0 | 0.00 | 0.00 | 0.00 | 46 | |
| 20260501195206 | 50 | 117 | 3.0 | 8.0 | 0.00 | 0.00 | 0.00 | 45 | |
| 20260501194206 | 50 | 28 | 4.0 | 9.0 | 0.00 | 0.00 | 0.00 | 46 | |
| 20260501193205 | 51 | 302 | 0.0 | 8.0 | 0.00 | 0.00 | 0.00 | 45 | |
| 20260501192205 | 50 | 31 | 2.0 | 6.0 | 0.00 | 0.00 | 0.00 | 44 | |
| 20260501191206 | 50 | 22 | 2.0 | 13.0 | 0.00 | 0.00 | 0.00 | 46 | |
| 20260501190205 | 50 | 26 | 5.0 | 12.0 | 0.00 | 0.00 | 0.00 | 46 | |
| 20260501185206 | 49 | 306 | 4.0 | 12.0 | 0.00 | 0.00 | 0.00 | 46 | |
| 20260501184206 | 50 | 82 | 2.0 | 9.0 | 0.00 | 0.00 | 0.00 | 47 | |
| 20260501183206 | 50 | 53 | 5.0 | 9.0 | 0.00 | 0.00 | 0.00 | 48 | |
| 20260501182206 | 49 | 343 | 3.0 | 10.0 | 0.00 | 0.00 | 0.00 | 48 | |
| 20260501181206 | 48 | 327 | 4.0 | 10.0 | 0.00 | 0.00 | 0.00 | 49 | |
| 20260501180206 | 48 | 0 | 3.0 | 13.0 | 0.00 | 0.00 | 0.00 | 50 | |
| 20260501175207 | 48 | 1 | 6.0 | 16.0 | 0.00 | 0.00 | 0.00 | 47 | |
| 20260501174206 | 49 | 31 | 4.0 | 15.0 | 0.00 | 0.00 | 0.00 | 49 | |
| 20260501173205 | 50 | 313 | 5.0 | 13.0 | 0.00 | 0.00 | 0.00 | 47 | |
| 20260501172206 | 50 | 339 | 2.0 | 7.0 | 0.00 | 0.00 | 0.00 | 49 | |
| 20260501171205 | 50 | 30 | 5.0 | 9.0 | 0.00 | 0.00 | 0.00 | 49 |